STARLINK-1318 (45416 NORAD) Tracking and Keplerian Element Data

This shows tracking and keplerian element data for the satellite.

Feedback or suggestion? Click here.




ElementValue
Catalog45416
NameSTARLINK-1318
Epoch Orbit1781
Epoch Day190.25001157
Epoch Year2020
RAAN71.2483
Inclination52.9954
Eccentricity0.0001303
Argument of Perigee90.389
Mean Anonmoly189.9876
Mean Motion15.11031354
Decay Rate-0.01088862
L11 45416U 20019BJ 20190.25001157 -.01088862 00000-0 -69646-1 0 9992
L22 45416 52.9954 71.2483 0001303 90.3890 189.9876 15.11031354 17816

Live tracking and technical data element details for STARLINK-1318 (NORAD 45416). STARLINK-1318 can be tracked NOW for your location showing map with azimuth and elevation plus other details from your city location.

Track the satellite on the map from your city or location and see movement details for azimuth, elevation, latitude, longitude, range, height, and movement on the map or in text.







IsCatalogInMostPopularTable: catalog: 45416, numindb: 35
Update: records affected: 1



GetName: 45416 STARLINK-1318

Hit Count: updated at: Thu, 09 Jul 2020 01:37:14 GMT